Tracking 33165 objects as of 7-Feb-2026
HD Live streaming from Space Station
objects crossing your sky now

STARLINK-36175

Track STARLINK-36175 now!
10-day predictions


NORAD ID: 67012
Int'l Code: 2025-293K
Perigee: 576.9 km
Apogee: 581.4 km
Inclination: 70.0 °
Period: 96.1 minutes
Semi major axis: 6950 km
RCS: Unknown
Launch date: December 10, 2025
Source: United States (US)
Launch site: AIR FORCE WESTERN TEST RANGE (AFWTR)
Your satellite tracking list
Your tracking list is empty




NASA's NSSDC Master Catalog

Two Line Element Set (TLE):
1 67012U 25293K   26038.64880325  .00007774  00000-0  65816-3 0  9996
2 67012  70.0013 170.3753 0003242 271.7653  88.3135 14.98354101 10383
Source of the keplerian elements: AFSPC